Theta_e
309 310 309 308 307 304 301 299 296 315 314 296 296 294 299 299 298 301 298 298 296 293 294 292 291 291 295 301 299 292 294 290 285 289 295 296 294 291 289 284 283 285 282 283
308 309 309 308 307 305 298 294 300 314 310 291 292 297 297 298 297 297 297 295 297 296 292 288 293 294 299 300 297 293 296 288 279 282 288 294 289 291 293 290 289 284 281 282
308 309 309 308 306 305 300 296 297 301 302 301 295 294 295 294 300 298 299 297 296 293 291 292 289 291 297 300 298 302 297 287 284 279 283 289 285 290 291 288 283 285 286 288
308 309 309 307 306 305 302 300 297 299 292 293 295 297 296 294 294 297 296 293 292 290 286 289 288 292 293 295 301 296 292 284 287 289 291 290 289 289 290 287 289 285 287 288
306 308 308 307 305 304 303 297 294 294 292 296 295 296 295 293 293 293 291 291 294 292 287 289 287 289 289 289 292 290 292 282 289 286 290 290 288 291 291 291 290 289 291 289
305 306 308 306 305 304 296 299 300 294 293 294 293 294 294 293 295 295 295 293 291 290 292 294 293 292 292 292 289 287 287 285 283 279 288 287 282 290 291 292 294 292 286 290
304 305 308 306 305 303 298 297 297 292 289 292 292 295 296 292 292 290 294 296 292 296 299 298 296 294 294 295 293 292 287 286 285 279 284 276 290 296 296 293 294 295 295 296
304 304 306 307 304 303 299 298 296 293 287 292 292 294 293 293 294 295 296 298 299 299 295 290 288 290 291 294 297 293 293 288 281 277 276 286 290 292 293 290 290 294 293 295
304 304 304 306 304 303 301 299 302 296 289 290 295 291 294 289 289 294 298 301 300 297 293 290 282 281 289 285 289 297 296 292 284 280 278 275 289 295 298 296 283 294 295 293
305 304 304 305 306 303 300 298 301 296 288 293 294 291 290 293 292 291 296 296 295 298 289 283 283 283 293 284 286 287 285 284 281 281 280 285 294 296 296 281 283 294 294 294
305 305 304 304 306 303 301 298 300 297 291 292 295 297 293 293 294 290 294 294 295 292 287 288 286 286 288 286 290 288 285 285 280 282 281 277 297 294 286 291 294 294 294 295
305 305 304 304 306 303 302 294 302 302 294 292 298 298 298 297 297 295 296 295 295 296 289 291 291 287 286 286 279 294 285 289 286 286 282 294 296 292 293 295 293 294 295 296
305 304 304 304 306 303 301 297 299 296 293 293 294 295 302 302 301 303 293 297 299 297 297 292 289 286 290 284 285 289 293 292 285 285 292 292 294 294 295 296 296 297 298 295
305 304 304 304 305 303 302 297 299 296 294 288 293 302 301 306 305 305 303 302 300 298 296 291 289 287 295 290 292 289 289 290 287 287 291 291 293 294 295 297 299 299 298 295
306 304 303 303 304 302 301 300 300 299 293 288 289 296 299 301 304 303 303 301 299 295 292 291 289 293 292 293 291 289 292 290 286 284 290 290 291 294 298 297 297 298 295 294
305 304 303 303 304 301 297 292 298 299 298 291 286 296 297 302 304 302 301 300 296 294 290 290 293 299 294 286 282 291 295 294 295 291 294 294 296 297 299 298 299 297 296 295
304 303 303 304 302 299 294 293 297 300 299 292 287 289 299 302 302 300 300 301 297 296 292 290 292 295 293 290 287 292 291 291 292 294 294 293 296 294 298 299 297 298 295 295
303 303 303 303 301 298 294 299 301 301 296 295 287 288 293 304 296 296 301 296 297 295 293 295 294 295 293 289 292 292 291 292 293 293 295 295 297 299 300 299 296 294 294 293
303 304 301 298 295 292 296 302 302 301 296 288 289 287 287 302 297 299 298 298 291 297 292 291 293 291 287 290 289 290 290 290 291 294 295 296 296 298 299 297 295 293 292 292
302 298 294 290 295 302 303 296 292 291 293 292 288 292 289 297 295 294 294 296 292 288 291 294 289 289 293 292 292 292 293 293 293 291 292 295 296 296 297 297 295 294 293 293
297 293 292 299 303 298 294 289 288 288 286 289 290 291 288 298 290 290 295 290 293 287 289 288 288 287 290 293 293 294 294 294 294 295 296 297 298 296 297 298 296 295 294 293
297 297 300 299 294 292 288 288 290 288 287 292 291 293 294 296 297 291 294 290 293 286 292 289 286 288 291 293 292 293 294 293 293 294 295 297 297 298 298 298 298 295 295 295
299 295 291 291 290 284 283 282 287 288 294 296 294 293 294 294 294 292 292 288 288 296 290 287 287 291 291 292 292 292 294 294 294 293 295 296 297 298 298 298 299 295 295 295
292 289 284 286 285 286 287 288 291 296 297 296 295 293 292 296 291 292 288 292 292 285 285 284 288 290 291 292 292 291 291 293 293 293 294 295 295 295 297 298 299 299 295 295
290 290 285 286 291 293 294 296 296 298 298 294 293 295 295 291 290 291 289 287 284 286 284 287 290 292 291 291 292 291 291 292 292 294 294 295 294 293 295 297 298 298 296 295
291 290 288 293 291 291 293 294 294 298 294 295 295 293 291 291 289 287 286 284 282 286 289 290 291 292 292 293 293 292 292 292 293 293 294 295 293 293 293 295 296 296 299 297
290 289 294 293 293 293 295 297 295 298 294 289 292 290 289 293 287 285 288 284 288 290 291 292 291 291 293 294 292 292 292 294 293 293 294 294 294 293 292 291 293 295 298 298
Wind_Speed
16 16 16 19 22 27 9 6 5 3 3 0 3 3 10 12 17 13 8 2 6 7 11 8 13 13 4 4 5 5 4 1 3 7 11 6 4 7 5 1 4 5 4 11
14 16 15 16 17 16 4 6 5 4 3 3 5 9 12 13 14 14 8 3 7 8 9 8 7 10 8 6 4 5 6 5 4 7 5 3 4 3 4 5 7 8 4 5
13 15 16 17 18 14 1 4 5 5 3 3 7 10 12 13 14 15 5 5 8 9 7 7 7 9 8 3 5 15 5 4 5 5 9 4 2 6 9 6 4 3 9 11
11 12 14 17 19 20 2 3 4 4 5 9 16 14 9 14 15 9 10 7 10 9 6 7 8 9 9 11 7 3 3 3 5 9 12 14 13 13 13 14 14 10 15 15
10 11 11 15 19 23 2 4 4 7 8 10 14 12 8 14 11 9 9 6 8 6 5 7 8 6 6 4 4 2 3 3 5 7 11 15 16 16 17 17 19 17 9 14
8 10 9 12 16 13 3 4 4 3 5 7 11 8 19 16 11 5 11 10 6 7 7 7 6 6 6 7 6 4 3 2 5 4 8 15 8 7 4 8 7 7 3 6
6 8 8 6 8 9 2 3 3 4 5 3 8 20 21 16 16 12 13 7 6 3 8 8 9 11 11 10 10 8 5 3 2 5 7 2 2 13 7 9 4 9 3 8
6 7 9 4 2 4 1 3 3 3 5 5 13 16 16 13 14 13 12 4 4 5 5 3 5 4 6 9 7 2 5 4 2 2 2 11 5 8 10 11 15 12 14 15
9 7 9 10 4 1 2 3 3 3 3 5 6 12 11 5 8 8 13 7 5 2 2 3 4 3 3 2 2 8 7 3 3 4 2 4 6 15 13 13 7 16 15 16
11 8 9 12 7 5 1 3 3 1 3 7 4 3 10 6 5 6 4 10 6 2 3 2 2 3 0 2 2 1 2 1 5 4 4 5 10 10 11 5 8 16 15 17
12 10 10 11 6 8 3 3 2 2 3 10 9 5 4 6 3 4 8 7 6 4 4 3 3 3 5 4 5 2 2 1 2 1 3 7 12 6 6 7 11 15 19 20
13 11 11 11 7 11 5 2 1 2 4 7 8 16 21 17 16 4 4 3 6 4 3 4 4 4 3 4 3 6 4 2 2 3 6 10 7 7 6 12 15 20 21 22
14 12 12 10 9 14 10 2 1 2 3 7 5 8 13 11 14 8 1 3 4 3 2 2 3 3 3 2 2 1 3 6 1 6 3 11 14 7 15 17 20 21 23 19
14 13 11 10 5 11 8 3 2 1 3 4 6 9 3 5 8 7 4 2 4 1 2 2 3 2 3 3 2 3 2 5 6 7 8 16 9 17 20 22 20 22 20 22
14 11 10 8 6 10 5 2 3 3 2 3 7 13 12 9 7 8 7 6 3 2 2 2 3 3 4 3 2 2 1 1 2 5 15 10 18 21 22 24 24 20 19 27
13 10 8 7 12 9 1 2 2 4 3 3 4 5 7 3 10 8 8 6 4 1 0 2 4 1 1 2 1 1 5 2 4 5 12 17 18 19 23 23 25 17 24 28
11 9 6 6 15 3 2 2 1 3 1 3 4 5 5 7 9 4 3 4 3 3 2 3 3 1 1 1 2 7 9 9 10 10 12 16 13 18 24 24 15 19 26 24
10 6 4 12 9 2 3 3 9 2 2 3 3 5 4 6 4 3 4 3 3 3 3 2 1 2 2 2 5 10 10 12 9 13 14 15 18 21 19 15 14 25 25 27
10 15 15 4 1 2 2 0 7 3 2 2 3 3 3 3 5 4 3 4 3 2 3 1 1 2 0 5 6 9 10 8 13 16 15 17 20 21 22 16 19 24 24 26
21 4 2 2 4 4 6 2 2 2 2 2 4 4 5 3 4 6 5 5 5 3 2 2 2 2 7 5 5 4 7 10 12 14 14 18 19 20 22 21 16 17 23 24
1 3 2 1 1 3 3 3 4 3 3 4 5 6 5 4 2 2 3 1 3 2 3 2 3 2 3 6 5 6 7 10 11 12 14 16 17 19 19 21 16 16 21 24
4 3 2 1 2 3 3 3 4 5 4 6 4 6 6 3 2 2 3 1 1 2 7 3 3 3 5 7 7 7 8 10 12 14 16 17 18 18 19 19 17 15 16 22
2 2 3 2 3 5 5 4 4 4 4 5 4 3 4 1 1 2 1 3 3 8 3 3 3 4 6 5 6 8 6 8 11 15 15 16 17 19 19 18 18 15 15 20
3 4 4 5 5 5 4 3 3 3 5 5 4 2 4 3 1 2 2 1 3 2 1 3 2 4 4 5 7 9 10 9 9 13 14 15 17 17 19 17 18 16 17 17
3 3 4 7 5 1 2 5 7 10 7 0 1 3 3 2 2 1 3 3 1 4 2 2 2 3 2 5 4 8 9 10 9 10 12 15 15 16 17 17 17 19 13 15
1 4 4 4 1 3 4 7 8 6 3 2 2 1 1 2 3 3 1 4 2 2 1 2 1 2 4 5 4 7 7 8 8 10 10 12 11 15 16 16 16 18 18 15
4 5 5 5 4 4 7 6 4 2 2 2 3 2 3 3 2 2 2 1 2 3 4 4 5 1 2 5 3 3 5 6 7 7 10 10 6 9 12 16 17 17 16 17
Wind_Direction
327 333 342 348 1 347 14 333 308 205 126 19 217 235 299 334 335 321 335 298 317 336 341 331 327 319 337 66 23 33 70 243 278 258 260 347 22 52 91 248 208 268 208 251
326 329 337 350 5 12 323 307 268 269 111 274 322 319 339 333 322 340 323 336 321 347 315 304 268 302 315 98 107 166 156 217 303 316 286 82 67 307 147 177 215 222 238 272
324 329 337 348 353 354 62 297 304 340 339 314 13 337 322 320 313 295 348 12 359 313 312 338 319 322 338 162 142 172 215 232 233 236 270 183 259 269 284 139 259 286 251 288
319 332 345 349 353 344 84 240 299 38 329 335 321 303 300 290 299 12 25 357 319 313 338 330 306 324 339 336 131 128 99 273 308 300 305 300 289 256 251 243 234 221 271 252
315 333 349 356 357 334 115 308 353 347 301 300 315 302 309 332 333 6 328 291 317 314 300 287 314 356 349 291 1 310 181 252 263 284 298 288 288 285 274 241 239 254 278 303
306 326 343 3 7 350 351 342 344 292 279 309 313 313 334 318 322 319 324 329 340 323 324 349 315 284 263 263 278 292 287 309 355 272 331 315 300 13 12 308 296 23 36 300
273 308 328 3 21 28 316 294 297 275 274 331 305 300 304 330 324 302 292 278 259 359 343 317 281 254 243 231 240 204 236 289 26 278 323 279 61 31 44 342 348 2 3 343
248 285 303 289 9 28 316 294 326 298 291 316 296 325 318 317 306 295 300 212 109 19 318 283 287 39 29 316 289 355 94 76 297 236 275 284 11 12 325 348 312 23 350 337
226 263 285 305 199 117 276 272 259 280 320 261 272 329 317 337 319 320 21 46 130 208 275 325 332 284 83 256 74 33 31 162 170 345 335 293 34 333 351 294 262 360 349 334
223 238 263 276 212 160 229 285 343 93 256 272 6 267 285 299 320 294 354 341 335 214 328 301 247 275 73 4 185 234 271 292 208 236 248 268 8 2 325 22 306 328 330 320
223 224 258 279 244 164 168 273 254 210 253 284 263 283 316 331 312 320 334 334 7 343 4 0 335 341 342 20 356 103 117 287 291 8 275 293 14 7 13 291 309 325 319 314
219 219 250 267 268 170 164 244 305 313 233 266 302 275 266 246 247 311 316 299 22 353 15 12 330 324 318 327 299 28 56 37 270 188 242 310 359 325 342 326 328 318 311 310
212 216 245 258 298 173 174 200 318 316 267 273 249 239 260 215 224 232 237 26 355 23 322 348 278 279 337 303 335 2 140 37 311 6 289 350 319 338 326 324 311 308 307 315
209 213 242 247 293 182 183 179 172 253 276 275 284 2 351 239 187 196 182 164 83 344 320 297 269 278 337 341 289 81 350 316 342 265 286 334 310 318 320 319 311 302 305 312
204 213 240 241 263 182 215 237 204 197 280 302 296 305 266 250 178 170 190 111 88 26 22 343 267 312 11 17 307 120 210 253 287 286 314 291 291 306 311 311 319 307 327 317
196 213 231 266 165 167 186 289 165 197 211 275 291 316 275 190 163 181 162 136 116 110 22 250 287 10 72 261 282 188 261 130 262 290 299 293 301 314 311 309 316 334 325 318
186 209 229 265 169 170 181 255 123 353 236 253 283 281 257 213 161 169 68 116 129 149 218 236 265 134 26 243 257 11 13 342 317 295 321 316 317 310 308 306 322 336 320 316
181 181 200 140 151 349 286 231 233 208 259 263 275 275 268 185 164 130 138 171 141 182 238 217 292 156 221 253 355 8 348 329 313 330 323 308 304 310 327 320 345 338 327 329
149 129 117 101 204 220 241 332 151 176 285 268 249 273 279 259 211 118 202 156 172 140 207 126 317 239 69 21 9 353 336 326 309 318 315 316 322 322 339 345 353 340 338 333
127 125 162 200 194 200 150 142 135 177 228 227 258 273 276 333 276 181 202 164 155 174 129 120 207 121 92 64 40 345 323 327 330 322 322 321 329 340 340 343 358 349 342 336
165 170 203 78 212 189 204 198 208 164 227 216 233 228 246 285 301 357 5 356 115 212 156 222 175 96 63 45 7 351 351 339 326 320 320 326 334 334 339 342 349 357 352 345
135 114 82 134 196 215 247 215 185 198 234 189 224 195 201 258 40 55 348 283 218 244 136 219 129 85 64 35 357 354 352 343 340 338 334 334 340 337 340 341 347 0 352 352
95 183 163 215 153 224 222 215 197 217 220 177 193 205 182 79 257 154 212 245 234 143 207 84 72 65 47 10 353 343 342 339 346 343 336 339 339 341 344 344 353 1 0 358
181 166 193 225 187 233 206 255 314 291 277 185 193 178 178 134 201 119 245 268 241 239 121 77 84 47 8 358 345 343 343 346 346 341 338 340 348 341 338 351 350 356 1 2
177 197 227 214 245 291 241 257 270 265 264 215 163 194 117 146 112 251 16 281 312 42 66 86 75 65 46 331 345 348 345 342 346 339 340 348 352 342 338 351 347 349 360 8
231 228 247 267 283 239 250 258 260 262 301 304 312 197 59 63 132 194 267 330 47 108 108 161 132 40 355 347 38 355 335 323 342 351 339 351 0 350 345 342 351 350 358 355
217 224 226 255 270 255 265 292 209 201 314 243 229 220 139 146 145 98 62 72 142 184 174 124 119 233 296 82 62 317 288 305 18 346 0 352 4 0 357 356 348 341 353 347